ETD913 OMAA-EHAM

Flight info

Callsign ETD913
Flight time N/A
Altitude 32000
Route BOSEV N563 ALPOB L768 RABLA M556 OBROS L768 AAR/N0482F340 L768 MODAD B544 ALE M861 NISAP UM861 BELSU UA17 BAG UW75 DEREL UL602 MAKOL DCT KOMAN DCT BUDOP DCT PATAK DCT TURIS DCT MAKAL DCT ELMEK DCT VEXIL DCT KATCE DCT NORKU
Aircraft B77L/H-SDE1E2E3FGHIJ2J3J4J5M1RWXY/LB1D1

Departure

Time 2026-05-04 10:58
Airport Zayed International Airport (OMAA)

Arrival

Time N/A
Airport Amsterdam Airport Schiphol (EHAM)
Time Latitude Longitude Altitude Speed Heading
2026-05-04 10:44 24.42460 54.65394 86 ft 4 kts 207°
2026-05-04 10:45 24.42481 54.65405 86 ft 1 kts 202°
2026-05-04 10:49 24.42402 54.65420 83 ft 8 kts 149°
2026-05-04 10:49 24.42397 54.65424 81 ft 0 kts 147°
2026-05-04 10:51 24.42376 54.65534 85 ft 9 kts 104°
2026-05-04 10:52 24.42343 54.65592 86 ft 9 kts 129°
2026-05-04 10:52 24.42304 54.65645 81 ft 9 kts 129°
2026-05-04 10:52 24.42264 54.65699 85 ft 9 kts 127°
2026-05-04 10:54 24.42078 54.66106 84 ft 9 kts 127°
2026-05-04 10:54 24.42040 54.66160 85 ft 9 kts 128°
2026-05-04 10:56 24.42054 54.66592 84 ft 9 kts 56°
2026-05-04 10:56 24.42099 54.66640 85 ft 9 kts 38°
2026-05-04 10:56 24.42150 54.66679 67 ft 9 kts 24°
2026-05-04 10:57 24.42206 54.66663 84 ft 9 kts 315°
2026-05-04 10:57 24.42255 54.66599 85 ft 17 kts 308°
2026-05-04 10:57 24.42436 54.66342 87 ft 69 kts 308°
2026-05-04 10:57 24.42834 54.65784 85 ft 116 kts 308°
2026-05-04 10:58 24.43415 54.64964 87 ft 155 kts 308°
2026-05-04 10:58 24.44142 54.63939 138 ft 181 kts 308°
2026-05-04 10:58 24.44914 54.62846 474 ft 184 kts 306°
2026-05-04 10:58 24.45757 54.61714 797 ft 194 kts 310°
2026-05-04 10:59 24.46557 54.60566 1404 ft 184 kts 303°
2026-05-04 10:59 24.46953 54.59752 1768 ft 183 kts 292°
2026-05-04 10:59 24.47211 54.58697 2076 ft 186 kts 279°
2026-05-04 10:59 24.47125 54.57257 2441 ft 195 kts 258°
2026-05-04 11:00 24.46548 54.55888 2731 ft 204 kts 249°
2026-05-04 11:01 24.54683 54.48072 4988 ft 263 kts 323°
2026-05-04 11:02 24.56047 54.46759 5743 ft 259 kts 315°
2026-05-04 11:02 24.57258 54.45300 6389 ft 259 kts 311°
2026-05-04 11:05 24.74831 54.20583 11603 ft 368 kts 308°